"Sample Date","Sample Time","Sample Value","Units","Flow Rate","Sample Interval","Number Channels","Micron Size 0","Counts/Channel 0","Micron Size 1","Counts/Channel 1","Micron Size 2","Counts/Channel 2","Micron Size 3","Counts/Channel 3","Micron Size 4","Counts/Channel 4","Micron Size 5","Counts/Channel 5","Micron Size 6","Counts/Channel 6","Micron Size 7","Counts/Channel 7","Micron Size 8","Counts/Channel 8","Micron Size 9","Counts/Channel 9","Micron Size 10","Counts/Channel 10","Micron Size 11","Counts/Channel 11","Micron Size 12","Counts/Channel 12","Micron Size 13","Counts/Channel 13","Micron Size 14","Counts/Channel 14","Micron Size 15","Counts/Channel 15","Micron Size 16","Counts/Channel 16","Micron Size 17","Counts/Channel 17","Micron Size 18","Counts/Channel 18","Micron Size 19","Counts/Channel 19","Micron Size 20","Counts/Channel 20","Micron Size 21","Counts/Channel 21","Micron Size 22","Counts/Channel 22","Micron Size 23","Counts/Channel 23","Micron Size 24","Counts/Channel 24","Micron Size 25","Counts/Channel 25","Micron Size 26","Counts/Channel 26","Micron Size 27","Counts/Channel 27","Micron Size 28","Counts/Channel 28","Micron Size 29","Counts/Channel 29","Micron Size 30","Counts/Channel 30","Micron Size 31","Counts/Channel 31"
"03/06/08","00:00:05",17151.000,"cc",28278.680,6.00,6,0.100,12597.000,0.200,4006.000,0.300,283.000,0.500,204.000,1.000,61.000,5.000,0
"03/06/08","00:00:11",17400.000,"cc",28291.445,6.00,6,0.100,12702.000,0.200,4080.000,0.300,318.000,0.500,254.000,1.000,46.000,5.000,0
"03/06/08","00:00:17",17286.000,"cc",28280.301,6.00,6,0.100,12662.000,0.200,4018.000,0.300,307.000,0.500,238.000,1.000,61.000,5.000,0
"03/06/08","00:00:23",17473.000,"cc",28296.775,6.00,6,0.100,12896.000,0.200,3961.000,0.300,298.000,0.500,243.000,1.000,75.000,5.000,0
"03/06/08","00:00:29",17679.000,"cc",28331.236,6.00,6,0.100,12982.000,0.200,4064.000,0.300,331.000,0.500,236.000,1.000,66.000,5.000,0
"03/06/08","00:00:35",18217.000,"cc",28357.652,6.00,6,0.100,13279.000,0.200,4343.000,0.300,305.000,0.500,250.000,1.000,40.000,5.000,0
"03/06/08","00:00:41",18466.000,"cc",28336.215,6.00,6,0.100,13416.000,0.200,4420.000,0.300,298.000,0.500,260.000,1.000,72.000,5.000,0
"03/06/08","00:00:47",19564.000,"cc",28374.857,6.00,6,0.100,13902.000,0.200,5031.000,0.300,332.000,0.500,249.000,1.000,50.000,5.000,0
"03/06/08","00:00:53",19666.000,"cc",28282.723,6.00,6,0.100,13961.000,0.200,5016.000,0.300,361.000,0.500,269.000,1.000,59.000,5.000,0
"03/06/08","00:00:59",19971.000,"cc",28275.008,6.00,6,0.100,14188.000,0.200,5142.000,0.300,349.000,0.500,235.000,1.000,57.000,5.000,0
"03/06/08","00:01:05",19852.000,"cc",28259.576,6.00,6,0.100,14069.000,0.200,5082.000,0.300,343.000,0.500,300.000,1.000,58.000,5.000,0
"03/06/08","00:01:11",19245.000,"cc",28351.822,6.00,6,0.100,13745.000,0.200,4837.000,0.300,316.000,0.500,272.000,1.000,75.000,5.000,0
"03/06/08","00:01:17",19307.000,"cc",28305.645,6.00,6,0.100,13834.000,0.200,4839.000,0.300,323.000,0.500,261.000,1.000,50.000,5.000,0
"03/06/08","00:01:23",19377.000,"cc",28299.576,6.00,6,0.100,13843.000,0.200,4903.000,0.300,324.000,0.500,249.000,1.000,58.000,5.000,0
"03/06/08","00:01:29",19608.000,"cc",28363.643,6.00,6,0.100,14098.000,0.200,4894.000,0.300,291.000,0.500,267.000,1.000,58.000,5.000,0
"03/06/08","00:01:35",19676.000,"cc",28373.027,6.00,6,0.100,14192.000,0.200,4791.000,0.300,354.000,0.500,259.000,1.000,80.000,5.000,0
"03/06/08","00:01:41",19748.000,"cc",28292.285,6.00,6,0.100,14108.000,0.200,4878.000,0.300,379.000,0.500,313.000,1.000,70.000,5.000,0
"03/06/08","00:01:47",20691.000,"cc",28308.639,6.00,6,0.100,14850.000,0.200,5079.000,0.300,394.000,0.500,311.000,1.000,57.000,5.000,0
"03/06/08","00:01:53",21265.000,"cc",28338.943,6.00,6,0.100,15121.000,0.200,5407.000,0.300,394.000,0.500,287.000,1.000,56.000,5.000,0
"03/06/08","00:01:59",21651.000,"cc",28315.147,6.00,6,0.100,15531.000,0.200,5402.000,0.300,381.000,0.500,273.000,1.000,64.000,5.000,0
"03/06/08","00:02:05",22131.000,"cc",28379.986,6.00,6,0.100,15921.000,0.200,5476.000,0.300,436.000,0.500,269.000,1.000,29.000,5.000,0
"03/06/08","00:02:11",21976.000,"cc",28244.717,6.00,6,0.100,15702.000,0.200,5539.000,0.300,405.000,0.500,274.000,1.000,56.000,5.000,0
"03/06/08","00:02:17",22640.000,"cc",28348.477,6.00,6,0.100,16052.000,0.200,5912.000,0.300,377.000,0.500,259.000,1.000,40.000,5.000,0
"03/06/08","00:02:23",22166.000,"cc",28293.949,6.00,6,0.100,15723.000,0.200,5820.000,0.300,345.000,0.500,235.000,1.000,43.000,5.000,0
"03/06/08","00:02:29",22641.000,"cc",28365.713,6.00,6,0.100,16167.000,0.200,5832.000,0.300,375.000,0.500,237.000,1.000,30.000,5.000,0
"03/06/08","00:02:35",22564.000,"cc",28327.856,6.00,6,0.100,16071.000,0.200,5924.000,0.300,347.000,0.500,202.000,1.000,20.000,5.000,0
"03/06/08","00:02:41",22567.000,"cc",28269.731,6.00,6,0.100,16063.000,0.200,5914.000,0.300,369.000,0.500,193.000,1.000,28.000,5.000,0
"03/06/08","00:02:47",21921.000,"cc",28346.580,6.00,6,0.100,15856.000,0.200,5608.000,0.300,314.000,0.500,126.000,1.000,17.000,5.000,0
"03/06/08","00:02:53",21894.000,"cc",28273.803,6.00,6,0.100,15812.000,0.200,5715.000,0.300,265.000,0.500,93.000,1.000,9.000,5.000,0
"03/06/08","00:02:59",21050.000,"cc",28357.953,6.00,6,0.100,15280.000,0.200,5473.000,0.300,237.000,0.500,59.000,1.000,1.000,5.000,0
"03/06/08","00:03:05",22474.000,"cc",28271.660,6.00,6,0.100,16072.000,0.200,5957.000,0.300,327.000,0.500,111.000,1.000,7.000,5.000,0
"03/06/08","00:03:11",22504.000,"cc",28298.104,6.00,6,0.100,16070.000,0.200,5984.000,0.300,312.000,0.500,119.000,1.000,19.000,5.000,0
"03/06/08","00:03:17",22354.000,"cc",28334.639,6.00,6,0.100,16133.000,0.200,5879.000,0.300,265.000,0.500,75.000,1.000,2.000,5.000,0
"03/06/08","00:03:23",22161.000,"cc",28358.662,6.00,6,0.100,15845.000,0.200,5922.000,0.300,293.000,0.500,99.000,1.000,2.000,5.000,0
"03/06/08","00:03:29",23081.000,"cc",28269.615,6.00,6,0.100,16555.000,0.200,6094.000,0.300,299.000,0.500,123.000,1.000,10.000,5.000,0
"03/06/08","00:03:35",23619.000,"cc",28338.600,6.00,6,0.100,16864.000,0.200,6237.000,0.300,359.000,0.500,143.000,1.000,16.000,5.000,0
"03/06/08","00:03:41",23054.000,"cc",28331.738,6.00,6,0.100,16468.000,0.200,5970.000,0.300,387.000,0.500,196.000,1.000,33.000,5.000,0
"03/06/08","00:03:47",23049.000,"cc",28348.006,6.00,6,0.100,16111.000,0.200,6263.000,0.300,386.000,0.500,248.000,1.000,41.000,5.000,0
"03/06/08","00:03:53",23145.000,"cc",28306.637,6.00,6,0.100,16377.000,0.200,6063.000,0.300,424.000,0.500,234.000,1.000,47.000,5.000,0
"03/06/08","00:03:59",22477.000,"cc",28297.084,6.00,6,0.100,15791.000,0.200,5946.000,0.300,410.000,0.500,288.000,1.000,42.000,5.000,0
"03/06/08","00:04:05",22182.000,"cc",28341.397,6.00,6,0.100,15533.000,0.200,5934.000,0.300,393.000,0.500,272.000,1.000,50.000,5.000,0
"03/06/08","00:04:11",22465.000,"cc",28303.887,6.00,6,0.100,15858.000,0.200,5884.000,0.300,390.000,0.500,288.000,1.000,45.000,5.000,0
"03/06/08","00:04:17",21819.000,"cc",28364.160,6.00,6,0.100,15123.000,0.200,5933.000,0.300,414.000,0.500,284.000,1.000,65.000,5.000,0
"03/06/08","00:04:23",21232.000,"cc",28332.781,6.00,6,0.100,14731.000,0.200,5784.000,0.300,374.000,0.500,279.000,1.000,64.000,5.000,0
"03/06/08","00:04:29",20160.000,"cc",28317.623,6.00,6,0.100,13998.000,0.200,5511.000,0.300,346.000,0.500,251.000,1.000,54.000,5.000,0
"03/06/08","00:04:35",20276.000,"cc",28318.510,6.00,6,0.100,14158.000,0.200,5414.000,0.300,368.000,0.500,272.000,1.000,64.000,5.000,0
"03/06/08","00:04:41",20192.000,"cc",28303.773,6.00,6,0.100,13882.000,0.200,5546.000,0.300,403.000,0.500,283.000,1.000,78.000,5.000,0
"03/06/08","00:04:47",19740.000,"cc",28354.998,6.00,6,0.100,13643.000,0.200,5417.000,0.300,369.000,0.500,253.000,1.000,58.000,5.000,0
"03/06/08","00:04:53",18770.000,"cc",28354.760,6.00,6,0.100,13056.000,0.200,5030.000,0.300,342.000,0.500,267.000,1.000,75.000,5.000,0
"03/06/08","00:04:59",18764.000,"cc",28282.188,6.00,6,0.100,12965.000,0.200,5196.000,0.300,307.000,0.500,247.000,1.000,49.000,5.000,0
"03/06/08","00:05:05",19154.000,"cc",28351.178,6.00,6,0.100,13037.000,0.200,5500.000,0.300,343.000,0.500,222.000,1.000,52.000,5.000,0
"03/06/08","00:05:11",19015.000,"cc",28311.393,6.00,6,0.100,13046.000,0.200,5342.000,0.300,313.000,0.500,252.000,1.000,62.000,5.000,0
"03/06/08","00:05:17",18852.000,"cc",28232.477,6.00,6,0.100,12977.000,0.200,5279.000,0.300,320.000,0.500,230.000,1.000,46.000,5.000,0
"03/06/08","00:05:23",19558.000,"cc",28309.811,6.00,6,0.100,13460.000,0.200,5431.000,0.300,345.000,0.500,271.000,1.000,51.000,5.000,0
"03/06/08","00:05:29",19049.000,"cc",28352.807,6.00,6,0.100,13224.000,0.200,5126.000,0.300,346.000,0.500,294.000,1.000,59.000,5.000,0
"03/06/08","00:05:35",19186.000,"cc",28266.856,6.00,6,0.100,13276.000,0.200,5288.000,0.300,348.000,0.500,228.000,1.000,46.000,5.000,0
"03/06/08","00:05:41",19099.000,"cc",28308.096,6.00,6,0.100,13027.000,0.200,5441.000,0.300,338.000,0.500,246.000,1.000,47.000,5.000,0
"03/06/08","00:05:47",19117.000,"cc",28354.684,6.00,6,0.100,13092.000,0.200,5394.000,0.300,318.000,0.500,252.000,1.000,61.000,5.000,0
"03/06/08","00:05:53",19126.000,"cc",28369.525,6.00,6,0.100,13128.000,0.200,5320.000,0.300,356.000,0.500,265.000,1.000,57.000,5.000,0
"03/06/08","00:05:59",18815.000,"cc",28310.361,6.00,6,0.100,12873.000,0.200,5346.000,0.300,348.000,0.500,216.000,1.000,32.000,5.000,0
"03/06/08","00:06:05",18886.000,"cc",28299.359,6.00,6,0.100,13058.000,0.200,5248.000,0.300,326.000,0.500,211.000,1.000,43.000,5.000,0
"03/06/08","00:06:11",18893.000,"cc",28335.475,6.00,6,0.100,12995.000,0.200,5251.000,0.300,334.000,0.500,259.000,1.000,54.000,5.000,0
"03/06/08","00:06:17",18139.000,"cc",28317.076,6.00,6,0.100,12645.000,0.200,4888.000,0.300,311.000,0.500,237.000,1.000,58.000,5.000,0
"03/06/08","00:06:23",17895.000,"cc",28269.559,6.00,6,0.100,12382.000,0.200,4903.000,0.300,323.000,0.500,227.000,1.000,60.000,5.000,0
"03/06/08","00:06:29",17539.000,"cc",28305.258,6.00,6,0.100,12177.000,0.200,4779.000,0.300,317.000,0.500,214.000,1.000,52.000,5.000,0
"03/06/08","00:06:35",17925.000,"cc",28306.670,6.00,6,0.100,12349.000,0.200,5013.000,0.300,306.000,0.500,213.000,1.000,44.000,5.000,0
"03/06/08","00:06:41",17478.000,"cc",28282.705,6.00,6,0.100,12136.000,0.200,4799.000,0.300,285.000,0.500,209.000,1.000,49.000,5.000,0
"03/06/08","00:06:47",17579.000,"cc",28246.381,6.00,6,0.100,12124.000,0.200,4869.000,0.300,300.000,0.500,242.000,1.000,44.000,5.000,0
"03/06/08","00:06:53",17949.000,"cc",28352.654,6.00,6,0.100,12341.000,0.200,5057.000,0.300,307.000,0.500,210.000,1.000,34.000,5.000,0
"03/06/08","00:06:59",18382.000,"cc",28248.760,6.00,6,0.100,12443.000,0.200,5357.000,0.300,346.000,0.500,195.000,1.000,41.000,5.000,0
"03/06/08","00:07:05",18226.000,"cc",28354.213,6.00,6,0.100,12335.000,0.200,5329.000,0.300,320.000,0.500,206.000,1.000,36.000,5.000,0
"03/06/08","00:07:11",18462.000,"cc",28309.510,6.00,6,0.100,12407.000,0.200,5498.000,0.300,315.000,0.500,200.000,1.000,42.000,5.000,0
"03/06/08","00:07:17",18076.000,"cc",28337.709,6.00,6,0.100,12029.000,0.200,5501.000,0.300,314.000,0.500,202.000,1.000,30.000,5.000,0
"03/06/08","00:07:23",18739.000,"cc",28413.184,6.00,6,0.100,12447.000,0.200,5712.000,0.300,347.000,0.500,202.000,1.000,31.000,5.000,0
"03/06/08","00:07:29",19120.000,"cc",28324.688,6.00,6,0.100,12996.000,0.200,5653.000,0.300,302.000,0.500,153.000,1.000,16.000,5.000,0
"03/06/08","00:07:35",18702.000,"cc",28360.318,6.00,6,0.100,12645.000,0.200,5532.000,0.300,322.000,0.500,177.000,1.000,26.000,5.000,0
"03/06/08","00:07:41",18936.000,"cc",28328.902,6.00,6,0.100,12792.000,0.200,5641.000,0.300,316.000,0.500,166.000,1.000,21.000,5.000,0
"03/06/08","00:07:47",19084.000,"cc",28303.385,6.00,6,0.100,12803.000,0.200,5756.000,0.300,340.000,0.500,162.000,1.000,23.000,5.000,0
"03/06/08","00:07:53",18553.000,"cc",28274.102,6.00,6,0.100,12530.000,0.200,5558.000,0.300,280.000,0.500,165.000,1.000,20.000,5.000,0
"03/06/08","00:07:59",18111.000,"cc",28279.359,6.00,6,0.100,12369.000,0.200,5302.000,0.300,273.000,0.500,146.000,1.000,21.000,5.000,0
"03/06/08","00:08:05",18239.000,"cc",28294.447,6.00,6,0.100,12269.000,0.200,5543.000,0.300,265.000,0.500,143.000,1.000,19.000,5.000,0
"03/06/08","00:08:11",18247.000,"cc",28236.752,6.00,6,0.100,12281.000,0.200,5564.000,0.300,265.000,0.500,121.000,1.000,16.000,5.000,0
"03/06/08","00:08:17",18447.000,"cc",28301.922,6.00,6,0.100,12485.000,0.200,5467.000,0.300,326.000,0.500,141.000,1.000,28.000,5.000,0
"03/06/08","00:08:23",18592.000,"cc",28338.162,6.00,6,0.100,12552.000,0.200,5498.000,0.300,358.000,0.500,156.000,1.000,28.000,5.000,0
"03/06/08","00:08:29",18337.000,"cc",28308.346,6.00,6,0.100,12380.000,0.200,5481.000,0.300,288.000,0.500,164.000,1.000,24.000,5.000,0
"03/06/08","00:08:35",18174.000,"cc",28344.203,6.00,6,0.100,12237.000,0.200,5368.000,0.300,338.000,0.500,205.000,1.000,26.000,5.000,0
"03/06/08","00:08:41",18408.000,"cc",28292.555,6.00,6,0.100,12414.000,0.200,5534.000,0.300,290.000,0.500,154.000,1.000,16.000,5.000,0
"03/06/08","00:08:47",18582.000,"cc",28261.436,6.00,6,0.100,12437.000,0.200,5716.000,0.300,290.000,0.500,131.000,1.000,8.000,5.000,0
"03/06/08","00:08:53",17894.000,"cc",28328.490,6.00,6,0.100,12122.000,0.200,5371.000,0.300,273.000,0.500,111.000,1.000,17.000,5.000,0
"03/06/08","00:08:59",17974.000,"cc",28329.238,6.00,6,0.100,12248.000,0.200,5341.000,0.300,284.000,0.500,94.000,1.000,7.000,5.000,0
"03/06/08","00:09:05",17370.000,"cc",28293.252,6.00,6,0.100,11853.000,0.200,5221.000,0.300,240.000,0.500,53.000,1.000,3.000,5.000,0
"03/06/08","00:09:11",17142.000,"cc",28327.416,6.00,6,0.100,11712.000,0.200,5196.000,0.300,192.000,0.500,41.000,1.000,1.000,5.000,0
"03/06/08","00:09:17",17619.000,"cc",28319.451,6.00,6,0.100,12030.000,0.200,5322.000,0.300,224.000,0.500,40.000,1.000,3.000,5.000,0
"03/06/08","00:09:23",18420.000,"cc",28339.217,6.00,6,0.100,12438.000,0.200,5663.000,0.300,254.000,0.500,64.000,1.000,1.000,5.000,0
"03/06/08","00:09:29",18409.000,"cc",28341.231,6.00,6,0.100,12439.000,0.200,5674.000,0.300,228.000,0.500,65.000,1.000,3.000,5.000,0
"03/06/08","00:09:35",19275.000,"cc",28228.598,6.00,6,0.100,13073.000,0.200,5861.000,0.300,260.000,0.500,73.000,1.000,8.000,5.000,0
"03/06/08","00:09:41",19488.000,"cc",28238.881,6.00,6,0.100,13108.000,0.200,6007.000,0.300,286.000,0.500,84.000,1.000,3.000,5.000,0
"03/06/08","00:09:47",19673.000,"cc",28352.068,6.00,6,0.100,13298.000,0.200,5999.000,0.300,288.000,0.500,86.000,1.000,2.000,5.000,0
"03/06/08","00:09:53",19497.000,"cc",28389.086,6.00,6,0.100,13243.000,0.200,5910.000,0.300,261.000,0.500,79.000,1.000,4.000,5.000,0
"03/06/08","00:09:59",18105.000,"cc",28383.885,6.00,6,0.100,12276.000,0.200,5573.000,0.300,203.000,0.500,52.000,1.000,1.000,5.000,0
"03/06/08","00:10:05",18739.000,"cc",28285.240,6.00,6,0.100,12756.000,0.200,5723.000,0.300,210.000,0.500,48.000,1.000,2.000,5.000,0
"03/06/08","00:10:11",19310.000,"cc",28293.975,6.00,6,0.100,13177.000,0.200,5823.000,0.300,249.000,0.500,54.000,1.000,7.000,5.000,0
"03/06/08","00:10:17",19904.000,"cc",28351.260,6.00,6,0.100,13310.000,0.200,6192.000,0.300,315.000,0.500,84.000,1.000,3.000,5.000,0
"03/06/08","00:10:23",19845.000,"cc",28337.496,6.00,6,0.100,13328.000,0.200,6110.000,0.300,292.000,0.500,110.000,1.000,5.000,5.000,0
"03/06/08","00:10:29",19675.000,"cc",28227.078,6.00,6,0.100,13109.000,0.200,6154.000,0.300,289.000,0.500,114.000,1.000,9.000,5.000,0
"03/06/08","00:10:35",19517.000,"cc",28343.395,6.00,6,0.100,13118.000,0.200,6040.000,0.300,275.000,0.500,79.000,1.000,5.000,5.000,0
"03/06/08","00:10:41",19890.000,"cc",28282.051,6.00,6,0.100,13292.000,0.200,6138.000,0.300,327.000,0.500,121.000,1.000,12.000,5.000,0
"03/06/08","00:10:47",19430.000,"cc",28341.830,6.00,6,0.100,13005.000,0.200,5979.000,0.300,315.000,0.500,121.000,1.000,10.000,5.000,0
"03/06/08","00:10:53",19910.000,"cc",28282.637,6.00,6,0.100,13272.000,0.200,6227.000,0.300,308.000,0.500,98.000,1.000,5.000,5.000,0
"03/06/08","00:10:59",20031.000,"cc",28330.916,6.00,6,0.100,13356.000,0.200,6241.000,0.300,324.000,0.500,106.000,1.000,4.000,5.000,0
"03/06/08","00:11:05",20552.000,"cc",28321.859,6.00,6,0.100,13814.000,0.200,6263.000,0.300,345.000,0.500,120.000,1.000,10.000,5.000,0
"03/06/08","00:11:11",20184.000,"cc",28329.820,6.00,6,0.100,13526.000,0.200,6181.000,0.300,354.000,0.500,109.000,1.000,14.000,5.000,0
"03/06/08","00:11:17",20051.000,"cc",28355.277,6.00,6,0.100,13458.000,0.200,6129.000,0.300,320.000,0.500,137.000,1.000,7.000,5.000,0
"03/06/08","00:11:23",20415.000,"cc",28256.313,6.00,6,0.100,13595.000,0.200,6351.000,0.300,335.000,0.500,117.000,1.000,17.000,5.000,0
"03/06/08","00:11:29",20576.000,"cc",28330.586,6.00,6,0.100,13729.000,0.200,6424.000,0.300,322.000,0.500,93.000,1.000,8.000,5.000,0
"03/06/08","00:11:35",17184.000,"cc",28329.500,6.00,6,0.100,11652.000,0.200,5337.000,0.300,159.000,0.500,35.000,1.000,1.000,5.000,0
"03/06/08","00:11:41",16597.000,"cc",28404.430,6.00,6,0.100,11218.000,0.200,5188.000,0.300,169.000,0.500,21.000,1.000,1.000,5.000,0
"03/06/08","00:11:47",16958.000,"cc",28272.168,6.00,6,0.100,11418.000,0.200,5336.000,0.300,190.000,0.500,13.000,1.000,1.000,5.000,0
"03/06/08","00:11:53",17668.000,"cc",28301.180,6.00,6,0.100,11787.000,0.200,5653.000,0.300,199.000,0.500,28.000,1.000,1.000,5.000,0
"03/06/08","00:11:59",18310.000,"cc",28348.279,6.00,6,0.100,12210.000,0.200,5852.000,0.300,212.000,0.500,35.000,1.000,1.000,5.000,0
"03/06/08","00:12:05",17315.000,"cc",28377.656,6.00,6,0.100,11562.000,0.200,5499.000,0.300,209.000,0.500,41.000,1.000,4.000,5.000,0
"03/06/08","00:12:11",16539.000,"cc",28287.578,6.00,6,0.100,11159.000,0.200,5171.000,0.300,176.000,0.500,32.000,1.000,1.000,5.000,0
"03/06/08","00:12:17",17125.000,"cc",28359.557,6.00,6,0.100,11441.000,0.200,5448.000,0.300,203.000,0.500,33.000,1.000,0,5.000,0
"03/06/08","00:12:23",15894.000,"cc",28290.928,6.00,6,0.100,10808.000,0.200,4897.000,0.300,164.000,0.500,25.000,1.000,0,5.000,0
"03/06/08","00:12:29",16235.000,"cc",28341.061,6.00,6,0.100,10985.000,0.200,5052.000,0.300,170.000,0.500,27.000,1.000,1.000,5.000,0
"03/06/08","00:12:35",16743.000,"cc",28332.842,6.00,6,0.100,11217.000,0.200,5299.000,0.300,191.000,0.500,35.000,1.000,1.000,5.000,0
"03/06/08","00:12:41",15258.000,"cc",28364.010,6.00,6,0.100,10495.000,0.200,4592.000,0.300,149.000,0.500,21.000,1.000,1.000,5.000,0
"03/06/08","00:12:47",16318.000,"cc",28329.023,6.00,6,0.100,11026.000,0.200,5095.000,0.300,176.000,0.500,21.000,1.000,0,5.000,0
"03/06/08","00:12:53",15956.000,"cc",28267.641,6.00,6,0.100,10850.000,0.200,4920.000,0.300,156.000,0.500,29.000,1.000,1.000,5.000,0
"03/06/08","00:12:59",14783.000,"cc",28365.391,6.00,6,0.100,10022.000,0.200,4578.000,0.300,160.000,0.500,23.000,1.000,0,5.000,0
"03/06/08","00:13:05",15593.000,"cc",28290.664,6.00,6,0.100,10542.000,0.200,4863.000,0.300,160.000,0.500,28.000,1.000,0,5.000,0
"03/06/08","00:13:11",16139.000,"cc",28309.301,6.00,6,0.100,10904.000,0.200,5014.000,0.300,183.000,0.500,38.000,1.000,0,5.000,0
"03/06/08","00:13:17",16945.000,"cc",28327.281,6.00,6,0.100,11367.000,0.200,5353.000,0.300,197.000,0.500,27.000,1.000,1.000,5.000,0
"03/06/08","00:13:23",15679.000,"cc",28372.145,6.00,6,0.100,10484.000,0.200,5013.000,0.300,157.000,0.500,25.000,1.000,0,5.000,0
"03/06/08","00:13:29",13758.000,"cc",28308.893,6.00,6,0.100,9384.000,0.200,4194.000,0.300,159.000,0.500,18.000,1.000,3.000,5.000,0
"03/06/08","00:13:35",14619.000,"cc",28318.877,6.00,6,0.100,9878.000,0.200,4548.000,0.300,171.000,0.500,22.000,1.000,0,5.000,0
"03/06/08","00:13:41",15559.000,"cc",28232.838,6.00,6,0.100,10493.000,0.200,4837.000,0.300,193.000,0.500,36.000,1.000,0,5.000,0
"03/06/08","00:13:47",15974.000,"cc",28285.318,6.00,6,0.100,10657.000,0.200,5063.000,0.300,213.000,0.500,40.000,1.000,1.000,5.000,0
"03/06/08","00:13:53",17117.000,"cc",28368.643,6.00,6,0.100,11479.000,0.200,5338.000,0.300,233.000,0.500,66.000,1.000,1.000,5.000,0
"03/06/08","00:13:59",17609.000,"cc",28334.549,6.00,6,0.100,11614.000,0.200,5559.000,0.300,291.000,0.500,131.000,1.000,14.000,5.000,0
"03/06/08","00:14:05",17703.000,"cc",28329.395,6.00,6,0.100,11676.000,0.200,5576.000,0.300,300.000,0.500,135.000,1.000,16.000,5.000,0
"03/06/08","00:14:11",17430.000,"cc",28231.100,6.00,6,0.100,11582.000,0.200,5458.000,0.300,285.000,0.500,95.000,1.000,10.000,5.000,0
"03/06/08","00:14:17",17552.000,"cc",28275.428,6.00,6,0.100,11704.000,0.200,5455.000,0.300,282.000,0.500,100.000,1.000,11.000,5.000,0
"03/06/08","00:14:23",17621.000,"cc",28346.354,6.00,6,0.100,11726.000,0.200,5461.000,0.300,297.000,0.500,125.000,1.000,12.000,5.000,0
"03/06/08","00:14:29",17468.000,"cc",28357.020,6.00,6,0.100,11510.000,0.200,5535.000,0.300,297.000,0.500,116.000,1.000,10.000,5.000,0
"03/06/08","00:14:35",17042.000,"cc",28384.898,6.00,6,0.100,11345.000,0.200,5271.000,0.300,273.000,0.500,135.000,1.000,18.000,5.000,0
"03/06/08","00:14:41",16436.000,"cc",28343.822,6.00,6,0.100,10983.000,0.200,5089.000,0.300,246.000,0.500,107.000,1.000,11.000,5.000,0
"03/06/08","00:14:47",16241.000,"cc",28288.731,6.00,6,0.100,10822.000,0.200,5085.000,0.300,246.000,0.500,79.000,1.000,9.000,5.000,0
"03/06/08","00:14:53",16503.000,"cc",28309.440,6.00,6,0.100,11005.000,0.200,5083.000,0.300,277.000,0.500,123.000,1.000,15.000,5.000,0
"03/06/08","00:14:59",17273.000,"cc",28251.191,6.00,6,0.100,11480.000,0.200,5251.000,0.300,320.000,0.500,194.000,1.000,28.000,5.000,0
"03/06/08","00:15:05",17239.000,"cc",28264.586,6.00,6,0.100,11362.000,0.200,5379.000,0.300,309.000,0.500,162.000,1.000,27.000,5.000,0
"03/06/08","00:15:11",17666.000,"cc",28299.434,6.00,6,0.100,11654.000,0.200,5519.000,0.300,301.000,0.500,177.000,1.000,15.000,5.000,0
"03/06/08","00:15:17",17778.000,"cc",28333.336,6.00,6,0.100,11766.000,0.200,5423.000,0.300,363.000,0.500,193.000,1.000,33.000,5.000,0
"03/06/08","00:15:23",17510.000,"cc",28311.045,6.00,6,0.100,11579.000,0.200,5379.000,0.300,299.000,0.500,197.000,1.000,56.000,5.000,0
"03/06/08","00:15:29",17768.000,"cc",28328.256,6.00,6,0.100,11722.000,0.200,5471.000,0.300,322.000,0.500,211.000,1.000,42.000,5.000,0
"03/06/08","00:15:35",17717.000,"cc",28328.764,6.00,6,0.100,11660.000,0.200,5470.000,0.300,371.000,0.500,184.000,1.000,32.000,5.000,0
"03/06/08","00:15:41",17442.000,"cc",28343.588,6.00,6,0.100,11521.000,0.200,5365.000,0.300,344.000,0.500,184.000,1.000,28.000,5.000,0
"03/06/08","00:15:47",17972.000,"cc",28373.975,6.00,6,0.100,11781.000,0.200,5679.000,0.300,307.000,0.500,173.000,1.000,32.000,5.000,0
"03/06/08","00:15:53",17681.000,"cc",28230.973,6.00,6,0.100,11661.000,0.200,5482.000,0.300,312.000,0.500,197.000,1.000,29.000,5.000,0
"03/06/08","00:15:59",17998.000,"cc",28317.557,6.00,6,0.100,11891.000,0.200,5432.000,0.300,400.000,0.500,236.000,1.000,39.000,5.000,0
"03/06/08","00:16:05",18083.000,"cc",28385.133,6.00,6,0.100,11872.000,0.200,5573.000,0.300,344.000,0.500,259.000,1.000,35.000,5.000,0
"03/06/08","00:16:11",17559.000,"cc",28338.916,6.00,6,0.100,11735.000,0.200,5271.000,0.300,330.000,0.500,192.000,1.000,31.000,5.000,0
"03/06/08","00:16:17",17163.000,"cc",28218.051,6.00,6,0.100,11502.000,0.200,5094.000,0.300,339.000,0.500,186.000,1.000,42.000,5.000,0
"03/06/08","00:16:23",17345.000,"cc",28302.828,6.00,6,0.100,11595.000,0.200,5129.000,0.300,382.000,0.500,205.000,1.000,34.000,5.000,0
"03/06/08","00:16:29",17086.000,"cc",28348.414,6.00,6,0.100,11409.000,0.200,5106.000,0.300,334.000,0.500,209.000,1.000,28.000,5.000,0
"03/06/08","00:16:35",16441.000,"cc",28315.223,6.00,6,0.100,11045.000,0.200,4835.000,0.300,315.000,0.500,210.000,1.000,36.000,5.000,0
"03/06/08","00:16:41",16564.000,"cc",28285.279,6.00,6,0.100,10978.000,0.200,4971.000,0.300,336.000,0.500,230.000,1.000,49.000,5.000,0
"03/06/08","00:16:47",15732.000,"cc",28328.697,6.00,6,0.100,10645.000,0.200,4585.000,0.300,262.000,0.500,201.000,1.000,39.000,5.000,0
"03/06/08","00:16:53",16060.000,"cc",28292.930,6.00,6,0.100,10953.000,0.200,4533.000,0.300,321.000,0.500,209.000,1.000,44.000,5.000,0